Weather History for White Plains, NY

Change the Weather History Date:

Saturday, March 2, 2013

  Actual Average Record
Temperature  
Mean Temperature 38 °F -  
Max Temperature 43 °F 40 °F 64 °F (2004)
Min Temperature 33 °F 26 °F 8 °F (1980)
Degree Days  
Heating Degree Days 27    
Moisture  
Dew Point 22 °F    
Average Humidity 55    
Maximum Humidity 70    
Minimum Humidity 45    
Precipitation  
Precipitation 0.00 in - - ()
Sea Level Pressure  
Sea Level Pressure 29.73 in    
Wind  
Wind Speed 12 mph (NW)    
Max Wind Speed 16 mph    
Max Gust Speed 23 mph    
Visibility 9 miles    
Events Snow    
Averages and records for this station are not official NWS values.
T = Trace of Precipitation, MM = Missing Value Source: NWS Daily Summary

Daily Weather History Graph

Daily Weather History Graph

Search for Another Location

Airport:

Trip Planner

Search our weather history database for the weather conditions in past years. The results will help you decide how hot, cold, wet, or windy it might be!

Date:

Astronomy

Mar. 02, 2013 Rise Set
Actual Time 6:27 AM EST 5:47 PM EST
Civil Twilight 5:59 AM EST 6:14 PM EST
Nautical Twilight 5:27 AM EST 6:46 PM EST
Astronomical Twilight 4:55 AM EST 7:18 PM EST
Moon 11:27 PM EST (3/2) 8:50 AM EST (3/2)
Length of Visible Light 12h 15m
Length of Day
11h 20m
Waning Gibbous, 74% of the Moon is Illuminated
Mar 2
Waning Gibbous
Mar 4
Last Quarter
Mar 11
New
Mar 19
First Quarter
Mar 27
Full

Hourly Weather History & Observations

Time (EST) Temp. Windchill Dew Point Humidity Pressure Visibility Wind Dir Wind Speed Gust Speed Precip Events Conditions
12:56 AM 35.1 °F 26.4 °F 21.9 °F 59% 29.75 in 10.0 mi NW 12.7 mph - N/A   Mostly Cloudy
1:56 AM 35.1 °F 26.9 °F 21.9 °F 59% 29.75 in 10.0 mi NW 11.5 mph - N/A   Overcast
2:56 AM 36.0 °F 27.5 °F 21.9 °F 57% 29.75 in 10.0 mi NW 12.7 mph - N/A   Overcast
3:56 AM 37.9 °F 28.9 °F 21.0 °F 51% 29.75 in 10.0 mi NW 16.1 mph - N/A   Overcast
4:56 AM 37.0 °F 29.8 °F 21.0 °F 52% 29.75 in 10.0 mi NW 10.4 mph - N/A   Overcast
5:56 AM 33.1 °F 25.5 °F 21.0 °F 61% 29.75 in 10.0 mi NW 9.2 mph - N/A   Overcast
6:56 AM 33.1 °F 26.1 °F 21.0 °F 61% 29.76 in 10.0 mi NW 8.1 mph - N/A   Mostly Cloudy
7:56 AM 37.9 °F 29.2 °F 21.0 °F 51% 29.75 in 10.0 mi NW 15.0 mph - N/A   Scattered Clouds
8:56 AM 37.0 °F 27.7 °F 21.0 °F 52% 29.75 in 10.0 mi NNW 16.1 mph - N/A   Scattered Clouds
9:56 AM 41.0 °F 34.3 °F 21.9 °F 47% 29.74 in 10.0 mi WNW 11.5 mph - N/A   Mostly Cloudy
10:56 AM 39.0 °F 32.3 °F 21.9 °F 50% 29.73 in 10.0 mi NW 10.4 mph 20.7 mph N/A   Mostly Cloudy
11:56 AM 39.2 °F 33.0 °F 21.2 °F 49% 29.71 in 10.0 mi NW 9.2 mph - N/A   Mostly Cloudy
12:56 PM 37.9 °F 31.5 °F 21.9 °F 53% 29.72 in 10.0 mi WNW 9.2 mph - N/A   Overcast
1:56 PM 42.1 °F 35.7 °F 21.9 °F 45% 29.70 in 10.0 mi WNW 11.5 mph - N/A   Overcast
2:56 PM 39.9 °F 32.9 °F 21.9 °F 49% 29.69 in 10.0 mi WNW 11.5 mph - N/A   Overcast
3:56 PM 43.0 °F 36.0 °F 23.0 °F 45% 29.68 in 10.0 mi WNW 13.8 mph - N/A   Overcast
4:56 PM 42.1 °F 35.2 °F 24.1 °F 49% 29.69 in 10.0 mi WNW 12.7 mph - N/A   Overcast
5:56 PM 41.0 °F 34.7 °F 24.1 °F 51% 29.71 in 10.0 mi NW 10.4 mph - N/A   Overcast
6:56 PM 39.0 °F 31.4 °F 23.0 °F 53% 29.72 in 10.0 mi NW 12.7 mph - N/A   Overcast
7:56 PM 37.9 °F 30.9 °F 23.0 °F 55% 29.72 in 10.0 mi WNW 10.4 mph - N/A   Overcast
8:56 PM 37.0 °F 31.0 °F 25.0 °F 62% 29.73 in 3.0 mi WNW 8.1 mph - 0.00 in Snow Light Snow
9:56 PM 36.0 °F 28.0 °F 26.1 °F 67% 29.73 in 3.0 mi NW 11.5 mph - 0.00 in Snow Light Snow
10:56 PM 37.0 °F 29.3 °F 25.0 °F 62% 29.72 in 5.0 mi NW 11.5 mph - 0.00 in Snow Light Snow
11:56 PM 33.1 °F 23.9 °F 24.1 °F 70% 29.71 in 10.0 mi NW 12.7 mph 23.0 mph 0.00 in   Mostly Cloudy